Tracking 31027 objects as of 19-Jul-2025
HD Live streaming from Space Station
objects crossing your sky now

COSMOS 1275 DEB

Track COSMOS 1275 DEB now!
10-day predictions


NORAD ID: 13808
Int'l Code: 1981-053HF
Perigee: 882.4 km
Apogee: 969.3 km
Inclination: 83.0 °
Period: 103.4 minutes
Semi major axis: 7296 km
RCS: 0.015 m2 (small)
Launch date: June 4, 1981
Source: Commonwealth of Independent States (former USSR) (CIS)
Launch site: PLESETSK MISSILE AND SPACE COMPLEX (PKMTR)

Note: This is SATELLITE DEBRIS
Your satellite tracking list
STARLINK-1578
Track 1 satellite(s)




NASA's NSSDC Master Catalog

Two Line Element Set (TLE):
1 13808U 81053HC  25199.83277869  .00000892  00000-0  66729-3 0  9995
2 13808  83.0307 230.7924 0059542  11.0438 111.0473 13.92825396143869
Source of the keplerian elements: AFSPC